Regional Weather Roundup
Issued by NWS Lake Charles, LA

Home | Current Version | Previous Version | Text Only | Print | Product List | Glossary On
Versions: 1 2 3 4 5 6 7 8 9 10 11 12 13 14 15 16 17 18 19 20 21 22 23 24 25 26 27 28 29 30 31 32 33 34 35 36 37 38 39 40 41 42 43 44 45 46 47 48 49 50
132
ASUS44 KLCH 270410
RWRLCH
REGIONAL WEATHER ROUNDUP
NATIONAL WEATHER SERVICE LAKE CHARLES LA
1100 PM CDT WED APR 26 2017

Note: "fair" indicates few or no clouds below 12,000 feet with no
significant weather and/or obstructions to visibility.


ACROSS SOUTHEAST TEXAS

CITY           SKY/WX    TMP DP  RH WIND       PRES   REMARKS
BEAUMONT       PTCLDY    65  56  72 N14G22    29.74R
BEAUMONT CITY  FAIR      63  57  82 N9        29.76R
ORANGE         MOCLDY    64  58  83 NW8       29.76R
JASPER           N/A     60  56  85 NW8       29.79R
$$

ACROSS CENTRAL LOUISIANA

CITY           SKY/WX    TMP DP  RH WIND       PRES   REMARKS
LEESVILLE      MOCLDY    58  56  92 NW10      29.73R
FULLERTON      MOCLDY    59  56  89 VRB6      29.71R
ALEXANDRIA INT MOCLDY    61  58  90 NW14      29.70R
ESLER FIELD    CLOUDY    63  61  93 NW9G16    29.70R
DERIDDER       FAIR      60  59  96 NW13G18   29.75R
OAKDALE        CLOUDY    65  62  90 NW7       29.72R
OPELOUSAS      FAIR      65  61  87 NW8       29.70R
$$

ACROSS SOUTHWEST AND SOUTH CENTRAL LOUISIANA

CITY           SKY/WX    TMP DP  RH WIND       PRES   REMARKS
SULPHUR        CLOUDY    65  63  90 NW6       29.74R
LAKE CHARLES   CLOUDY    68  60  75 NW16      29.72R
CHENNAULT INT  NOT AVBL
CAMERON PHI    CLOUDY    68  63  83 N14G20    29.72R
DEQUINCY       FAIR      62  56  83 NW10      29.74R
JENNINGS       CLOUDY    67  62  82 NW8       29.72R
LAFAYETTE      CLOUDY    71  63  75 W3        29.71R
NEW IBERIA     CLOUDY    76  73  91 SW6       29.69R
ABBEVILLE      MOCLDY    72  64  78 NW14      29.70R
PATTERSON      CLOUDY    76  74  93 SW9       29.68R
SALT POINT       N/A     76  73  91 VRB5      29.66R
$$

SELECTED SITES ACROSS THE REGION

CITY           SKY/WX    TMP DP  RH WIND       PRES   REMARKS
HOUSTON BUSH   MOCLDY    70  52  52 N8        29.77R
HOUSTON HOBBY  MOCLDY    71  54  54 N13       29.75R
GALVESTON      CLEAR     73  63  70 N20G30    29.75R
COLLEGE STAT   CLEAR     62  49  62 N15       29.80R
CONROE         PTCLDY    65  53  65 N9G18     29.79R
HUNTSVILLE     CLEAR     61  53  75 N5        29.80R
LUFKIN         CLEAR     56  51  84 NW7       29.79R
SHREVEPORT     CLOUDY    56  50  80 NW15G25   29.77R
MONROE         CLOUDY    61  55  81 W18G31    29.68R
NATCHEZ MS     CLOUDY    65  62  90 W8        29.69R
BATON ROUGE    CLOUDY    77  73  87 SW16      29.67R
N.O. INTL ARPT CLOUDY    77  72  84 S13       29.69R
SLIDELL        CLOUDY    77  73  87 S10       29.69R
$$

MARINE REPORTS

STATION/POSITION TIME  SKY/WX   TEMP    WIND        PRES    VSBY
                                AIR SEA DIR/SP/G
                 (UTC)          (F)     (DEG/KT/KT) (MB)    (MI)
BUOY 30 S HIGH I 0350            71 76  350/ 21/ 25 1006.4R
WVE H/P(F/S)=  5/ 8

SEA RIM ST PARK  0300            67     360/ 12/ 15 1006.7R
PORT ARTHUR      0348            66 75  360/  9/ 17 1007.3R
SABINE PASS N    0348            68 78  350/ 13/ 17 1008.5R
TEXAS POINT      NOT AVBL
CALCASIEU PASS   0348            69 75  360/ 16/ 18   N/A
LK CHARLES BEACH 0348            67 74              1007.0R
MARSH ISLAND     0300            77                   N/A
FRESH WATER LOCK 0342            76 75  220/  4/  7 1005.0R
AMERADA PASS     0348            76 72  170/  3/  7 1004.6R
$$




USA.gov is the U.S. government's official web portal to all federal, state and local government web resources and services.